Погода в Нагорье

Россия / Белгородская область     50°02′05″N   39°04′42″E
темп.,
°C
ветер,
м/с
пор.,
м/с
влажн.,
%
обл.,
%
осадки,
мм/ч
давл.,
гПа
погр.,
м
16 мая, вс
вс1600:00+16сз227632 0.0 101311
03:00+15св22800 0.0 101414
06:00+16св22792 0.0 101342
09:00+21всв34625 0.0 1013452
12:00+25всв455425 0.0 10121081
15:00+27всв455555 0.0 10111831
18:00+24вюв585972 0.8 1010306
21:00+18всв466798 0.8 101067
17 мая, пн
пн1700:00+17всв4116584 0.0 1009150
03:00+16в41265100 0.0 1009192
06:00+16вюв5166426 0.0 1009291
09:00+22вюв816524 0.0 1008916
12:00+26юв9174828 0.0 10081611
15:00+26юв814491 0.0 10071623
18:00+24юв6115814 0.0 1007614
21:00+19юв33745 0.0 100830
18 мая, вт
вт1800:00+17ююв22835 0.0 100813
03:00+16ююз22905 0.0 100819
06:00+16зюз118696 0.0 100969
09:00+20ссз227157 0.0 1008564
12:00+24вюв2452100 0.0 10071391
15:00+24ююз4554100 0.0 10061512
18:00+20ююз3578100 0.8 1007250
21:00+17ю4985100 0.8 1007323
19 мая, ср
ср1900:00+14ю239590 0.3 100783
03:00+13ююв3798100 0.3 1007204
06:00+13ю489696 0.0 1007373
09:00+16ююз688294 0.4 1007814
12:00+19ююз696185 0.9 10081621
15:00+17ю6106899 1.1 10081096
18:00+16ююз69757 1.1 1007927
21:00+12ююз6119186 1.5 1009510
20 мая, чт
чт2000:00+12ююз61091100 0.1 1009816
03:00+11ююз61193100 0.3 1010855
06:00+11юз7129056 0.1 1011719
09:00+14юз8127267 0.1 10121277
12:00+18зюз8105729 0.1 10131684
15:00+20юз6850100 0.1 10131869
18:00+20ююз24565 0.0 10131587
21:00+15в346696 0.0 101341